Allentown, PA

3:54 PM EDT on April 29, 2017 (GMT -0400)
Lehigh Valley International

Weather History for KABE - April, 2012

Change the Weather History Date:

Tuesday, April 10, 2012

  Actual Average Record
Temperature  
Mean Temperature 47 °F 48 °F  
Max Temperature 61 °F 59 °F 86 °F (2013)
Min Temperature 33 °F 37 °F 23 °F (1950)
Degree Days  
Heating Degree Days 18 17  
Month to date heating degree days 160 186  
Since 1 July heating degree days 4177 5298  
Cooling Degree Days 0 0  
Month to date cooling degree days 0 0  
Year to date cooling degree days 1 0  
Moisture  
Dew Point 30 °F    
Average Humidity 56    
Maximum Humidity 85    
Minimum Humidity 27    
Precipitation  
Precipitation 0.00 in 0.13 in 1.54 in (1993)
Month to date precipitation 0.27 1.22  
Year to date precipitation 5.34 10.34  
Snow  
Snow 0.00 in 0.00 in 2.00 in (1918)
Month to date snowfall 0.0 0.5  
Since 1 July snowfall 12.0 32.4  
Snow Depth 0.00 in    
Sea Level Pressure  
Sea Level Pressure 29.74 in    
Wind  
Wind Speed 10 mph (West)    
Max Wind Speed 23 mph    
Max Gust Speed 32 mph    
Visibility 10 miles    
Events      
T = Trace of Precipitation, MM = Missing Value Source: NWS Daily Summary

Daily Weather History Graph

Daily Weather History Graph

Search for Another Location

Airport or City:

Trip Planner

Search our weather history database for the weather conditions in past years. The results will help you decide how hot, cold, wet, or windy it might be!

Date:

Astronomy

Apr. 10, 2012 Rise Set
Actual Time 6:30 AM EDT 7:36 PM EDT
Civil Twilight 6:02 AM EDT 8:04 PM EDT
Nautical Twilight 5:28 AM EDT 8:38 PM EDT
Astronomical Twilight 4:53 AM EDT 9:13 PM EDT
Moon No Moon Rise 9:11 AM EDT (4/10)
Length of Visible Light 14h 02m
Length of Day
13h 06m
Waning Gibbous, 79% of the Moon is Illuminated
Apr 10
Waning Gibbous
Apr 13
Last Quarter
Apr 21
New
Apr 29
First Quarter
May 5
Full

Hourly Weather History & Observations

Time (EDT) Temp. Windchill Dew Point Humidity Pressure Visibility Wind Dir Wind Speed Gust Speed Precip Events Conditions
12:51 AM 48.9 °F - 30.0 °F 48% 29.75 in 10.0 mi West 6.9 mph - N/A   Scattered Clouds
1:51 AM 48.0 °F - 33.1 °F 56% 29.74 in 10.0 mi West 8.1 mph - N/A   Clear
2:51 AM 42.1 °F 39.2 °F 33.1 °F 70% 29.74 in 10.0 mi WSW 4.6 mph - N/A   Scattered Clouds
3:51 AM 37.9 °F 33.5 °F 33.1 °F 83% 29.72 in 10.0 mi SW 5.8 mph - N/A   Partly Cloudy
4:51 AM 37.0 °F 32.4 °F 32.0 °F 82% 29.71 in 10.0 mi SW 5.8 mph - N/A   Clear
5:51 AM 35.1 °F 30.1 °F 30.9 °F 85% 29.72 in 10.0 mi SW 5.8 mph - N/A   Partly Cloudy
6:51 AM 39.9 °F - 34.0 °F 79% 29.74 in 10.0 mi Calm Calm - N/A   Clear
7:51 AM 44.1 °F 42.5 °F 37.0 °F 76% 29.74 in 10.0 mi WSW 3.5 mph - N/A   Partly Cloudy
8:51 AM 48.9 °F - 35.1 °F 59% 29.74 in 10.0 mi West 10.4 mph - N/A   Mostly Cloudy
9:51 AM 53.1 °F - 33.1 °F 47% 29.74 in 10.0 mi West 15.0 mph 18.4 mph N/A   Mostly Cloudy
10:51 AM 55.9 °F - 28.0 °F 34% 29.73 in 10.0 mi West 13.8 mph 21.9 mph N/A   Clear
11:51 AM 55.9 °F - 25.0 °F 30% 29.71 in 10.0 mi WSW 17.3 mph 23.0 mph N/A   Scattered Clouds
12:51 PM 55.9 °F - 24.1 °F 29% 29.70 in 10.0 mi West 16.1 mph 23.0 mph N/A   Overcast
1:51 PM 57.9 °F - 25.0 °F 28% 29.69 in 10.0 mi West 17.3 mph 27.6 mph N/A   Scattered Clouds
2:51 PM 61.0 °F - 26.1 °F 26% 29.68 in 10.0 mi WSW 17.3 mph 26.5 mph N/A   Mostly Cloudy
3:51 PM 57.0 °F - 25.0 °F 29% 29.69 in 10.0 mi West 18.4 mph 26.5 mph N/A   Mostly Cloudy
4:51 PM 55.9 °F - 24.1 °F 29% 29.70 in 10.0 mi West 15.0 mph 24.2 mph N/A   Overcast
5:51 PM 54.0 °F - 25.0 °F 33% 29.73 in 10.0 mi WNW 12.7 mph 19.6 mph N/A   Overcast
6:51 PM 51.1 °F - 30.0 °F 44% 29.75 in 10.0 mi NW 11.5 mph 21.9 mph N/A   Clear
7:51 PM 48.9 °F - 28.0 °F 44% 29.78 in 10.0 mi WNW 6.9 mph - N/A   Clear
8:51 PM 46.9 °F - 30.0 °F 52% 29.82 in 10.0 mi WNW 10.4 mph 18.4 mph N/A   Clear
9:51 PM 44.1 °F 38.6 °F 33.1 °F 65% 29.83 in 10.0 mi WNW 10.4 mph - N/A   Clear
10:51 PM 41.0 °F 36.4 °F 32.0 °F 70% 29.83 in 10.0 mi NW 6.9 mph - N/A   Clear
11:51 PM 39.0 °F 36.8 °F 30.9 °F 73% 29.83 in 10.0 mi West 3.5 mph - N/A   Clear